Location: Red Deer
(52.2681°N, 113.8112°W)
Time: 23:37:52
(UTC-06:00)

QB50P2 - Pass Details

Date: 24 May 2022
Orbit: 589 x 607 km, 97.9° (Epoch: 27 June)

Event Time Altitude Azimuth Distance (km) Brightness Sun altitude
Rises 01:50:12 0° 28° (NNE) 2,838 ? -16.8°
Reaches altitude 10° 01:53:07 10° 50° (NE) 1,928 ? -16.8°
Maximum altitude 01:55:46 16° 89° (E) 1,557 ? -16.8°
Enters shadow 01:58:06 11° 125° (SE) 1,849 ? -16.7°
